HAZ0859 ZPPP-ZSHC

Flight info

Callsign HAZ0859
Flight time 2h 40m
Altitude 33100
Route NODIB W137 LPS A581 IDGAG W80 XSH DCT JDZ DCT TXN G204 OREXA
Aircraft B738/M-SDE2E3FGHIRWXY/LB1

Departure

Time 2026-05-04 13:14
Airport Kunming Changshui International Airport (ZPPP)

Arrival

Time 2026-05-04 15:54
Airport Hangzhou Xiaoshan International Airport (ZSHC)
Time Latitude Longitude Altitude Speed Heading
2026-05-04 12:36 25.11053 102.93696 6896 ft 0 kts 40°
2026-05-04 12:52 25.11042 102.93687 6896 ft 2 kts 35°
2026-05-04 12:52 25.11029 102.93677 6896 ft 2 kts 29°
2026-05-04 12:53 25.11014 102.93669 6896 ft 2 kts 15°
2026-05-04 12:53 25.10997 102.93667 6896 ft 2 kts 344°
2026-05-04 12:53 25.10983 102.93676 6896 ft 2 kts 312°
2026-05-04 12:53 25.10980 102.93680 6896 ft 0 kts 309°
2026-05-04 12:56 25.10982 102.93677 6895 ft 1 kts 309°
2026-05-04 12:56 25.10990 102.93666 6896 ft 3 kts 309°
2026-05-04 12:56 25.11011 102.93637 6896 ft 6 kts 309°
2026-05-04 12:56 25.11045 102.93590 6897 ft 9 kts 308°
2026-05-04 12:57 25.11088 102.93530 6898 ft 10 kts 308°
2026-05-04 12:57 25.11132 102.93469 6899 ft 10 kts 308°
2026-05-04 12:57 25.11175 102.93410 6899 ft 10 kts 308°
2026-05-04 12:57 25.11216 102.93353 6900 ft 9 kts 308°
2026-05-04 12:58 25.11257 102.93297 6901 ft 9 kts 308°
2026-05-04 12:58 25.11296 102.93242 6901 ft 9 kts 308°
2026-05-04 12:58 25.11334 102.93189 6901 ft 9 kts 308°
2026-05-04 12:58 25.11371 102.93137 6901 ft 8 kts 308°
2026-05-04 12:59 25.11407 102.93088 6902 ft 8 kts 308°
2026-05-04 12:59 25.11445 102.93042 6902 ft 8 kts 329°
2026-05-04 12:59 25.11497 102.93048 6902 ft 8 kts 31°
2026-05-04 12:59 25.11539 102.93084 6902 ft 8 kts 38°
2026-05-04 13:00 25.11591 102.93128 6901 ft 11 kts 38°
2026-05-04 13:00 25.11659 102.93187 6901 ft 14 kts 38°
2026-05-04 13:00 25.11742 102.93259 6900 ft 16 kts 38°
2026-05-04 13:00 25.11837 102.93343 6900 ft 19 kts 38°
2026-05-04 13:01 25.11939 102.93431 6899 ft 18 kts 38°
2026-05-04 13:01 25.12038 102.93517 6899 ft 18 kts 38°
2026-05-04 13:01 25.12102 102.93573 6899 ft 17 kts 38°
2026-05-04 13:01 25.12195 102.93654 6898 ft 17 kts 38°
2026-05-04 13:02 25.12285 102.93732 6898 ft 16 kts 38°
2026-05-04 13:02 25.12372 102.93807 6898 ft 16 kts 38°
2026-05-04 13:02 25.12455 102.93879 6897 ft 15 kts 38°
2026-05-04 13:02 25.12534 102.93948 6897 ft 14 kts 38°
2026-05-04 13:03 25.12610 102.94014 6896 ft 14 kts 38°
2026-05-04 13:03 25.12683 102.94077 6896 ft 13 kts 38°
2026-05-04 13:03 25.12754 102.94138 6895 ft 13 kts 38°
2026-05-04 13:03 25.12822 102.94198 6895 ft 12 kts 38°
2026-05-04 13:04 25.12857 102.94228 6895 ft 0 kts 38°
2026-05-04 13:10 25.12861 102.94231 6895 ft 2 kts 38°
2026-05-04 13:10 25.12883 102.94251 6895 ft 6 kts 38°
2026-05-04 13:10 25.12930 102.94279 6895 ft 9 kts
2026-05-04 13:10 25.12978 102.94241 6895 ft 9 kts 308°
2026-05-04 13:11 25.13014 102.94188 6893 ft 8 kts 302°
2026-05-04 13:11 25.13013 102.94128 6893 ft 8 kts 241°
2026-05-04 13:11 25.12986 102.94097 6893 ft 0 kts 218°
2026-05-04 13:13 25.12985 102.94097 6893 ft 1 kts 218°
2026-05-04 13:13 25.12889 102.94014 6894 ft 47 kts 218°
2026-05-04 13:13 25.12442 102.93625 6899 ft 115 kts 218°
2026-05-04 13:13 25.11659 102.92945 6909 ft 170 kts 217°
2026-05-04 13:14 25.10676 102.92128 7474 ft 184 kts 217°
2026-05-04 13:14 25.09646 102.91272 8375 ft 185 kts 218°
2026-05-04 13:14 25.08572 102.90395 8931 ft 203 kts 218°
2026-05-04 13:14 25.07371 102.89419 9102 ft 226 kts 218°
2026-05-04 13:15 25.06044 102.88342 9274 ft 248 kts 218°
2026-05-04 13:15 25.04602 102.87171 9602 ft 264 kts 218°
2026-05-04 13:15 25.03104 102.85961 10311 ft 268 kts 218°
2026-05-04 13:15 25.01598 102.84755 11116 ft 268 kts 218°
2026-05-04 13:16 25.00075 102.83554 11850 ft 271 kts 218°
2026-05-04 13:16 24.98529 102.82350 12530 ft 276 kts 218°
2026-05-04 13:16 24.96896 102.81084 12773 ft 299 kts 218°
2026-05-04 13:16 24.95089 102.79772 12940 ft 326 kts 208°
2026-05-04 13:17 24.92782 102.79252 13096 ft 357 kts 180°
2026-05-04 13:17 24.90315 102.79987 13307 ft 382 kts 153°
2026-05-04 13:17 24.88169 102.81788 13811 ft 393 kts 137°
2026-05-04 13:17 24.86365 102.84075 14347 ft 400 kts 126°
2026-05-04 13:18 24.84950 102.86736 14906 ft 404 kts 115°
2026-05-04 13:18 24.83990 102.89659 15463 ft 409 kts 103°
2026-05-04 13:18 24.83520 102.92751 16013 ft 412 kts 97°
2026-05-04 13:18 24.83170 102.95901 16511 ft 417 kts 95°
2026-05-04 13:19 24.83092 102.99105 17028 ft 420 kts 85°
2026-05-04 13:19 24.83474 103.02303 17559 ft 424 kts 79°
2026-05-04 13:19 24.84254 103.05431 17987 ft 426 kts 62°
2026-05-04 13:19 24.85838 103.08149 18530 ft 422 kts 45°
2026-05-04 13:20 24.88014 103.10278 19000 ft 418 kts 32°
2026-05-04 13:20 24.90397 103.12132 19367 ft 421 kts 30°
2026-05-04 13:20 24.92829 103.13951 19814 ft 423 kts 30°
2026-05-04 13:20 24.95268 103.15764 20331 ft 423 kts 30°
2026-05-04 13:21 24.97712 103.17595 20768 ft 426 kts 30°
2026-05-04 13:21 25.00166 103.19452 21191 ft 430 kts 30°
2026-05-04 13:21 25.02632 103.21334 21593 ft 433 kts 31°
2026-05-04 13:21 25.05114 103.23241 22002 ft 436 kts 31°
2026-05-04 13:22 25.07614 103.25168 22390 ft 439 kts 31°
2026-05-04 13:22 25.10120 103.27103 22807 ft 441 kts 31°
2026-05-04 13:22 25.12638 103.29051 23196 ft 443 kts 31°
2026-05-04 13:22 25.15170 103.31010 23553 ft 446 kts 31°
2026-05-04 13:23 25.17722 103.32983 23887 ft 449 kts 31°
2026-05-04 13:23 25.20293 103.34971 24174 ft 452 kts 31°
2026-05-04 13:23 25.22871 103.36967 24469 ft 454 kts 31°
2026-05-04 13:23 25.25464 103.38974 24758 ft 456 kts 30°
2026-05-04 13:24 25.28076 103.40997 25026 ft 459 kts 30°
2026-05-04 13:24 25.30693 103.43026 25295 ft 462 kts 30°
2026-05-04 13:24 25.33332 103.45073 25595 ft 463 kts 30°
2026-05-04 13:25 25.38631 103.49187 26141 ft 468 kts 30°
2026-05-04 13:25 25.41302 103.51262 26416 ft 470 kts 30°
2026-05-04 13:25 25.43985 103.53349 26687 ft 472 kts 29°
2026-05-04 13:25 25.46676 103.55443 26939 ft 475 kts 29°
2026-05-04 13:26 25.49387 103.57552 27201 ft 477 kts 29°
2026-05-04 13:26 25.52097 103.59684 27462 ft 481 kts 32°
2026-05-04 13:26 25.54476 103.62353 27668 ft 497 kts 50°
2026-05-04 13:26 25.56340 103.65606 27958 ft 501 kts 53°
2026-05-04 13:27 25.58168 103.68896 28165 ft 504 kts 53°
2026-05-04 13:27 25.59997 103.72160 28352 ft 506 kts 53°
2026-05-04 13:27 25.61876 103.75465 28574 ft 508 kts 52°
2026-05-04 13:27 25.63779 103.78774 28793 ft 510 kts 52°
2026-05-04 13:28 25.65696 103.82084 29009 ft 511 kts 52°
2026-05-04 13:28 25.67623 103.85404 29215 ft 513 kts 52°
2026-05-04 13:28 25.69559 103.88739 29428 ft 515 kts 52°
2026-05-04 13:28 25.71503 103.92094 29632 ft 517 kts 52°
2026-05-04 13:29 25.73444 103.95452 29839 ft 519 kts 52°
2026-05-04 13:29 25.75397 103.98834 30140 ft 519 kts 52°
2026-05-04 13:29 25.77337 104.02200 30449 ft 517 kts 52°
2026-05-04 13:29 25.79271 104.05553 30739 ft 516 kts 52°
2026-05-04 13:30 25.81208 104.08896 31015 ft 514 kts 51°
2026-05-04 13:30 25.83158 104.12214 31253 ft 514 kts 51°
2026-05-04 13:30 25.85119 104.15533 31493 ft 514 kts 51°
2026-05-04 13:30 25.87078 104.18848 31766 ft 513 kts 51°
2026-05-04 13:31 25.89027 104.22155 32052 ft 512 kts 51°
2026-05-04 13:31 25.90976 104.25469 32320 ft 511 kts 51°
2026-05-04 13:31 25.92919 104.28781 32549 ft 512 kts 51°
2026-05-04 13:31 25.94864 104.32100 32779 ft 512 kts 51°
2026-05-04 13:32 25.96807 104.35419 33021 ft 512 kts 51°
2026-05-04 13:32 25.98747 104.38736 33250 ft 510 kts 51°
2026-05-04 13:32 26.02782 104.45238 33232 ft 508 kts 43°
2026-05-04 13:33 26.05210 104.48040 33228 ft 497 kts 34°
2026-05-04 13:33 26.07847 104.50502 33238 ft 494 kts 32°
2026-05-04 13:33 26.13173 104.55310 33237 ft 493 kts 32°
2026-05-04 13:34 26.18477 104.60149 33231 ft 493 kts 32°
2026-05-04 13:34 26.23752 104.65041 33228 ft 493 kts 32°
2026-05-04 13:35 26.31596 104.72363 33226 ft 492 kts 32°
2026-05-04 13:36 26.36895 104.77311 33203 ft 494 kts 32°
2026-05-04 13:36 26.42167 104.82239 33215 ft 495 kts 32°
2026-05-04 13:37 26.47447 104.87181 33207 ft 496 kts 32°
2026-05-04 13:37 26.52698 104.92103 33201 ft 496 kts 32°
2026-05-04 13:38 26.57984 104.97063 33192 ft 496 kts 32°
2026-05-04 13:38 26.63113 105.02331 33180 ft 506 kts 43°
2026-05-04 13:39 26.66927 105.09001 33209 ft 520 kts 59°
2026-05-04 13:39 26.69901 105.16512 33201 ft 528 kts 62°
2026-05-04 13:40 26.72829 105.24084 33189 ft 532 kts 61°
2026-05-04 13:40 26.75837 105.31685 33188 ft 535 kts 60°
2026-05-04 13:41 26.78882 105.39283 33189 ft 535 kts 60°
2026-05-04 13:41 26.81920 105.46859 33203 ft 533 kts 60°
2026-05-04 13:42 26.86450 105.58205 33198 ft 530 kts 60°
2026-05-04 13:42 26.89452 105.65745 33189 ft 530 kts 60°
2026-05-04 13:43 26.92425 105.73226 33214 ft 529 kts 60°
2026-05-04 13:43 26.95409 105.80749 33219 ft 528 kts 60°
2026-05-04 13:44 26.98390 105.88280 33210 ft 528 kts 60°
2026-05-04 13:44 27.01366 105.95812 33205 ft 529 kts 60°
2026-05-04 13:45 27.03859 106.02129 33204 ft 529 kts 60°
2026-05-04 13:45 27.07609 106.10707 33202 ft 525 kts 56°
2026-05-04 13:46 27.10457 106.16793 33213 ft 526 kts 56°
2026-05-04 13:46 27.13819 106.24082 33215 ft 527 kts 57°
2026-05-04 13:47 27.17132 106.31385 33217 ft 528 kts 57°
2026-05-04 13:47 27.20469 106.38751 33201 ft 530 kts 57°
2026-05-04 13:48 27.23816 106.46111 33198 ft 529 kts 57°
2026-05-04 13:48 27.27164 106.53476 33200 ft 529 kts 57°
2026-05-04 13:49 27.30506 106.60850 33197 ft 528 kts 57°
2026-05-04 13:49 27.33841 106.68224 33194 ft 528 kts 57°
2026-05-04 13:50 27.37161 106.75574 33197 ft 527 kts 57°
2026-05-04 13:50 27.40462 106.82934 33205 ft 527 kts 57°
2026-05-04 13:51 27.43756 106.90307 33206 ft 527 kts 57°
2026-05-04 13:51 27.47055 106.97698 33176 ft 528 kts 57°
2026-05-04 13:52 27.52056 107.08751 33202 ft 528 kts 56°
2026-05-04 13:53 27.55409 107.16127 33185 ft 529 kts 56°
2026-05-04 13:53 27.58754 107.23526 33190 ft 530 kts 56°
2026-05-04 13:54 27.63753 107.34648 33177 ft 531 kts 56°
2026-05-04 13:55 27.68754 107.45804 33188 ft 531 kts 57°
2026-05-04 13:55 27.73746 107.56969 33176 ft 531 kts 57°
2026-05-04 13:56 27.77069 107.64417 33178 ft 531 kts 57°
2026-05-04 13:57 27.82048 107.75602 33191 ft 531 kts 57°
2026-05-04 13:58 27.88803 107.90474 33173 ft 531 kts 56°
2026-05-04 13:58 27.93897 108.01606 33163 ft 532 kts 56°
2026-05-04 13:59 27.97282 108.09046 33168 ft 532 kts 56°
2026-05-04 14:00 28.02350 108.20228 33166 ft 532 kts 56°
2026-05-04 14:00 28.07417 108.31426 33130 ft 534 kts 56°
2026-05-04 14:01 28.10803 108.38933 33138 ft 536 kts 56°
2026-05-04 14:02 28.15886 108.50220 33169 ft 536 kts 57°
2026-05-04 14:02 28.19275 108.57764 33185 ft 537 kts 57°
2026-05-04 14:03 28.22667 108.65327 33178 ft 539 kts 57°
2026-05-04 14:03 28.26065 108.72919 33175 ft 541 kts 57°
2026-05-04 14:04 28.31178 108.84372 33162 ft 542 kts 57°
2026-05-04 14:04 28.34580 108.92015 33158 ft 542 kts 57°
2026-05-04 14:05 28.39674 109.03479 33157 ft 542 kts 57°
2026-05-04 14:06 28.43063 109.11124 33152 ft 542 kts 57°
2026-05-04 14:06 28.46447 109.18770 33145 ft 541 kts 57°
2026-05-04 14:07 28.49820 109.26410 33158 ft 541 kts 57°
2026-05-04 14:07 28.53193 109.34061 33153 ft 541 kts 57°
2026-05-04 14:08 28.56565 109.41727 33138 ft 542 kts 57°
2026-05-04 14:08 28.59697 109.49557 33149 ft 546 kts 63°
2026-05-04 14:09 28.63732 109.61726 33138 ft 549 kts 64°
2026-05-04 14:10 28.67950 109.73824 33144 ft 547 kts 63°
2026-05-04 14:10 28.70852 109.81836 33141 ft 547 kts 63°
2026-05-04 14:11 28.73738 109.89848 33141 ft 547 kts 63°
2026-05-04 14:11 28.78037 110.01906 33155 ft 548 kts 63°
2026-05-04 14:12 28.80871 110.09894 33150 ft 547 kts 63°
2026-05-04 14:13 28.85150 110.21969 33146 ft 548 kts 63°
2026-05-04 14:13 28.87998 110.30028 33151 ft 548 kts 63°
2026-05-04 14:14 28.90839 110.38085 33111 ft 545 kts 64°
2026-05-04 14:14 28.95076 110.50133 33138 ft 548 kts 64°
2026-05-04 14:15 29.00753 110.66345 33139 ft 550 kts 64°
2026-05-04 14:16 29.05014 110.78497 33135 ft 549 kts 64°
2026-05-04 14:17 29.09318 110.90601 33125 ft 546 kts 64°
2026-05-04 14:18 29.13603 111.02715 33125 ft 545 kts 64°
2026-05-04 14:18 29.16396 111.10656 33123 ft 532 kts 64°
2026-05-04 14:19 29.19145 111.18482 33115 ft 529 kts 64°
2026-05-04 14:19 29.21863 111.26226 33111 ft 528 kts 64°
2026-05-04 14:20 29.24588 111.34012 33120 ft 527 kts 64°
2026-05-04 14:20 29.27306 111.41797 33120 ft 526 kts 64°
2026-05-04 14:21 29.31374 111.53482 33111 ft 527 kts 65°
2026-05-04 14:21 29.34082 111.61279 33121 ft 526 kts 65°
2026-05-04 14:22 29.37377 111.68761 33123 ft 519 kts 52°
2026-05-04 14:22 29.41356 111.75585 33127 ft 518 kts 51°
2026-05-04 14:23 29.47381 111.85899 33119 ft 519 kts 52°
2026-05-04 14:24 29.51371 111.92886 33114 ft 520 kts 52°
2026-05-04 14:24 29.55317 111.99834 33118 ft 520 kts 52°
2026-05-04 14:25 29.59263 112.06786 33112 ft 520 kts 52°
2026-05-04 14:25 29.64515 112.16048 33113 ft 519 kts 52°
2026-05-04 14:26 29.68454 112.23009 33116 ft 519 kts 52°
2026-05-04 14:26 29.72382 112.29961 33115 ft 518 kts 52°
2026-05-04 14:27 29.74329 112.33414 33005 ft 509 kts 52°
2026-05-04 14:27 29.76243 112.36825 32477 ft 505 kts 53°
2026-05-04 14:27 29.78145 112.40221 31758 ft 507 kts 53°
2026-05-04 14:27 29.80042 112.43612 31429 ft 500 kts 53°
2026-05-04 14:28 29.83850 112.50420 31233 ft 514 kts 53°
2026-05-04 14:28 29.87752 112.57406 31111 ft 518 kts 53°
2026-05-04 14:29 29.95491 112.71324 31110 ft 515 kts 53°
2026-05-04 14:30 29.99359 112.78291 31109 ft 516 kts 53°
2026-05-04 14:31 30.05156 112.88756 31110 ft 516 kts 53°
2026-05-04 14:32 30.12876 113.02737 31110 ft 516 kts 53°
2026-05-04 14:32 30.16731 113.09738 31107 ft 516 kts 54°
2026-05-04 14:33 30.20575 113.16731 31109 ft 515 kts 54°
2026-05-04 14:33 30.24436 113.23696 31109 ft 514 kts 53°
2026-05-04 14:34 30.28335 113.30614 31110 ft 513 kts 53°
2026-05-04 14:34 30.32228 113.37535 31112 ft 512 kts 53°
2026-05-04 14:35 30.36097 113.44445 31113 ft 511 kts 53°
2026-05-04 14:35 30.39955 113.51357 31110 ft 510 kts 53°
2026-05-04 14:36 30.43798 113.58253 31113 ft 510 kts 53°
2026-05-04 14:36 30.47638 113.65155 31112 ft 509 kts 53°
2026-05-04 14:37 30.51467 113.72050 31114 ft 508 kts 53°
2026-05-04 14:37 30.55226 113.78987 31101 ft 510 kts 60°
2026-05-04 14:37 30.56532 113.82827 31122 ft 513 kts 73°
2026-05-04 14:38 30.57197 113.86885 31113 ft 515 kts 85°
2026-05-04 14:38 30.57183 113.91038 31111 ft 514 kts 97°
2026-05-04 14:38 30.56717 113.95151 31122 ft 513 kts 99°
2026-05-04 14:39 30.55813 114.03373 31105 ft 514 kts 97°
2026-05-04 14:39 30.55066 114.11625 31120 ft 515 kts 97°
2026-05-04 14:40 30.53897 114.24019 31114 ft 516 kts 97°
2026-05-04 14:40 30.53079 114.32302 31118 ft 517 kts 97°
2026-05-04 14:41 30.52265 114.40595 31118 ft 518 kts 98°
2026-05-04 14:42 30.50620 114.57217 31118 ft 519 kts 98°
2026-05-04 14:42 30.49787 114.65539 31123 ft 520 kts 98°
2026-05-04 14:43 30.48947 114.73878 31131 ft 520 kts 98°
2026-05-04 14:43 30.48102 114.82207 31136 ft 521 kts 98°
2026-05-04 14:44 30.47251 114.90544 31142 ft 521 kts 98°
2026-05-04 14:44 30.46394 114.98888 31145 ft 521 kts 98°
2026-05-04 14:45 30.45533 115.07229 31151 ft 522 kts 98°
2026-05-04 14:45 30.44665 115.15584 31152 ft 522 kts 98°
2026-05-04 14:46 30.43584 115.23890 31140 ft 520 kts 108°
2026-05-04 14:46 30.40918 115.31583 31140 ft 511 kts 126°
2026-05-04 14:47 30.37055 115.38443 31113 ft 504 kts 129°
2026-05-04 14:47 30.35126 115.41792 30677 ft 497 kts 129°
2026-05-04 14:47 30.33215 115.45117 29975 ft 497 kts 128°
2026-05-04 14:48 30.31298 115.48473 28988 ft 501 kts 128°
2026-05-04 14:48 30.29383 115.51846 27989 ft 504 kts 127°
2026-05-04 14:48 30.27461 115.55247 27030 ft 505 kts 127°
2026-05-04 14:48 30.25540 115.58658 26097 ft 506 kts 126°
2026-05-04 14:49 30.23625 115.62062 25322 ft 503 kts 126°
2026-05-04 14:49 30.21732 115.65427 25025 ft 498 kts 126°
2026-05-04 14:49 30.19842 115.68780 24902 ft 498 kts 126°
2026-05-04 14:49 30.17953 115.72128 24785 ft 497 kts 126°
2026-05-04 14:50 30.16067 115.75465 24695 ft 495 kts 126°
2026-05-04 14:50 30.14187 115.78786 24660 ft 494 kts 126°
2026-05-04 14:50 30.12313 115.82095 24660 ft 492 kts 126°
2026-05-04 14:50 30.10453 115.85375 24656 ft 492 kts 126°
2026-05-04 14:51 30.08559 115.88712 24657 ft 493 kts 126°
2026-05-04 14:51 30.06675 115.92030 24660 ft 495 kts 126°
2026-05-04 14:51 30.04772 115.95375 24672 ft 501 kts 126°
2026-05-04 14:51 30.02846 115.98758 24669 ft 507 kts 126°
2026-05-04 14:52 30.00907 116.02163 24660 ft 508 kts 126°
2026-05-04 14:52 29.98972 116.05563 24653 ft 506 kts 127°
2026-05-04 14:52 29.97041 116.08952 24655 ft 506 kts 127°
2026-05-04 14:52 29.95110 116.12338 24657 ft 505 kts 127°
2026-05-04 14:53 29.93176 116.15726 24659 ft 505 kts 127°
2026-05-04 14:53 29.91243 116.19108 24662 ft 505 kts 127°
2026-05-04 14:53 29.89309 116.22488 24662 ft 505 kts 127°
2026-05-04 14:53 29.87372 116.25869 24663 ft 506 kts 127°
2026-05-04 14:54 29.85434 116.29251 24662 ft 506 kts 127°
2026-05-04 14:54 29.83491 116.32639 24664 ft 507 kts 127°
2026-05-04 14:54 29.81547 116.36025 24664 ft 508 kts 127°
2026-05-04 14:54 29.79599 116.39417 24665 ft 508 kts 127°
2026-05-04 14:55 29.77644 116.42816 24667 ft 509 kts 127°
2026-05-04 14:55 29.75689 116.46214 24664 ft 510 kts 128°
2026-05-04 14:55 29.73733 116.49607 24667 ft 510 kts 128°
2026-05-04 14:55 29.71458 116.52688 24656 ft 501 kts 143°
2026-05-04 14:56 29.68633 116.54928 24667 ft 488 kts 160°
2026-05-04 14:56 29.65494 116.56268 24681 ft 478 kts 171°
2026-05-04 14:56 29.62278 116.57189 24669 ft 476 kts 173°
2026-05-04 14:56 29.59061 116.58006 24652 ft 467 kts 174°
2026-05-04 14:57 29.55964 116.58775 24646 ft 446 kts 174°
2026-05-04 14:57 29.52987 116.59521 24656 ft 435 kts 174°
2026-05-04 14:57 29.50028 116.60261 24658 ft 434 kts 175°
2026-05-04 14:57 29.47074 116.60994 24660 ft 436 kts 175°
2026-05-04 14:58 29.44105 116.61728 24667 ft 437 kts 175°
2026-05-04 14:58 29.41124 116.62463 24669 ft 438 kts 175°
2026-05-04 14:58 29.38149 116.63196 24665 ft 438 kts 175°
2026-05-04 14:58 29.36176 116.63682 24667 ft 438 kts 175°
2026-05-04 14:59 29.32184 116.64665 24665 ft 438 kts 175°
2026-05-04 14:59 29.29209 116.65398 24662 ft 438 kts 175°
2026-05-04 14:59 29.23260 116.66865 24662 ft 436 kts 175°
2026-05-04 15:00 29.20294 116.67597 24657 ft 436 kts 175°
2026-05-04 15:00 29.17332 116.68329 24664 ft 436 kts 175°
2026-05-04 15:00 29.14370 116.69061 24665 ft 435 kts 175°
2026-05-04 15:01 29.08457 116.70525 24664 ft 435 kts 175°
2026-05-04 15:01 29.05497 116.71259 24662 ft 435 kts 175°
2026-05-04 15:01 29.02540 116.71993 24657 ft 435 kts 175°
2026-05-04 15:01 28.99587 116.72727 24662 ft 435 kts 175°
2026-05-04 15:02 28.96630 116.73463 24655 ft 435 kts 175°
2026-05-04 15:02 28.93673 116.74202 24654 ft 435 kts 175°
2026-05-04 15:02 28.90718 116.74943 24665 ft 435 kts 175°
2026-05-04 15:02 28.87768 116.75684 24666 ft 435 kts 175°
2026-05-04 15:03 28.84810 116.76430 24663 ft 434 kts 175°
2026-05-04 15:03 28.81863 116.77176 24666 ft 434 kts 175°
2026-05-04 15:03 28.78913 116.77926 24665 ft 434 kts 175°
2026-05-04 15:03 28.75968 116.78676 24662 ft 434 kts 175°
2026-05-04 15:04 28.73019 116.79431 24661 ft 434 kts 175°
2026-05-04 15:04 28.70077 116.80196 24662 ft 435 kts 173°
2026-05-04 15:04 28.68168 116.80967 24654 ft 446 kts 161°
2026-05-04 15:04 28.64766 116.83823 24674 ft 467 kts 138°
2026-05-04 15:05 28.63444 116.85789 24682 ft 476 kts 127°
2026-05-04 15:05 28.62068 116.89252 24676 ft 487 kts 109°
2026-05-04 15:05 28.61548 116.93075 24676 ft 494 kts 92°
2026-05-04 15:05 28.61938 116.96955 24676 ft 495 kts 75°
2026-05-04 15:06 28.63214 117.00577 24677 ft 492 kts 57°
2026-05-04 15:06 28.65268 117.03649 24678 ft 485 kts 40°
2026-05-04 15:06 28.67876 117.06018 24688 ft 477 kts 28°
2026-05-04 15:07 28.73495 117.10012 24673 ft 475 kts 25°
2026-05-04 15:07 28.76336 117.11948 24670 ft 475 kts 25°
2026-05-04 15:07 28.79215 117.13901 24666 ft 475 kts 25°
2026-05-04 15:07 28.82050 117.15816 24672 ft 474 kts 25°
2026-05-04 15:08 28.84892 117.17733 24672 ft 473 kts 25°
2026-05-04 15:08 28.87725 117.19640 24678 ft 472 kts 25°
2026-05-04 15:08 28.90554 117.21541 24673 ft 472 kts 25°
2026-05-04 15:08 28.93389 117.23443 24668 ft 471 kts 25°
2026-05-04 15:09 28.96209 117.25335 24681 ft 470 kts 25°
2026-05-04 15:09 28.99034 117.27227 24692 ft 470 kts 25°
2026-05-04 15:09 29.01856 117.29116 24677 ft 470 kts 25°
2026-05-04 15:10 29.07470 117.32876 24671 ft 459 kts 25°
2026-05-04 15:10 29.10177 117.34703 24668 ft 445 kts 25°
2026-05-04 15:10 29.15462 117.38281 24677 ft 440 kts 25°
2026-05-04 15:11 29.18107 117.40070 24678 ft 441 kts 25°
2026-05-04 15:11 29.20748 117.41856 24689 ft 442 kts 25°
2026-05-04 15:11 29.23396 117.43646 24688 ft 442 kts 25°
2026-05-04 15:11 29.26045 117.45436 24690 ft 442 kts 25°
2026-05-04 15:12 29.28690 117.47212 24681 ft 439 kts 22°
2026-05-04 15:12 29.31486 117.48419 24644 ft 420 kts
2026-05-04 15:12 29.34307 117.48655 24321 ft 400 kts 349°
2026-05-04 15:12 29.37056 117.48377 23835 ft 395 kts 346°
2026-05-04 15:13 29.39782 117.47966 23205 ft 395 kts 345°
2026-05-04 15:13 29.42486 117.47505 22821 ft 391 kts 345°
2026-05-04 15:13 29.45201 117.47023 22734 ft 396 kts 345°
2026-05-04 15:13 29.47933 117.46612 22661 ft 398 kts 353°
2026-05-04 15:14 29.50669 117.47161 22396 ft 406 kts 17°
2026-05-04 15:14 29.53072 117.48904 21943 ft 416 kts 39°
2026-05-04 15:14 29.54974 117.51416 21460 ft 418 kts 52°
2026-05-04 15:14 29.56406 117.54315 20956 ft 419 kts 66°
2026-05-04 15:15 29.57307 117.57489 20503 ft 417 kts 73°
2026-05-04 15:15 29.58083 117.60687 20091 ft 413 kts 74°
2026-05-04 15:15 29.58825 117.63861 19831 ft 410 kts 74°
2026-05-04 15:16 29.60339 117.70252 19786 ft 413 kts 73°
2026-05-04 15:16 29.61103 117.73409 19789 ft 409 kts 73°
2026-05-04 15:16 29.62656 117.79737 19794 ft 413 kts 73°
2026-05-04 15:17 29.63449 117.82953 19812 ft 414 kts 73°
2026-05-04 15:17 29.65019 117.89331 19804 ft 415 kts 73°
2026-05-04 15:17 29.65804 117.92525 19802 ft 416 kts 73°
2026-05-04 15:18 29.66590 117.95728 19801 ft 416 kts 73°
2026-05-04 15:18 29.67371 117.98916 19798 ft 414 kts 73°
2026-05-04 15:18 29.68150 118.02101 19797 ft 413 kts 73°
2026-05-04 15:19 29.69701 118.08450 19808 ft 412 kts 73°
2026-05-04 15:19 29.70475 118.11626 19801 ft 412 kts 73°
2026-05-04 15:19 29.72019 118.17963 19803 ft 411 kts 73°
2026-05-04 15:20 29.72790 118.21133 19798 ft 411 kts 73°
2026-05-04 15:20 29.73440 118.24370 19787 ft 405 kts 81°
2026-05-04 15:20 29.73635 118.27536 19789 ft 391 kts 92°
2026-05-04 15:20 29.73418 118.30596 19793 ft 377 kts 97°
2026-05-04 15:21 29.73135 118.33561 19593 ft 370 kts 97°
2026-05-04 15:21 29.72845 118.36487 19267 ft 367 kts 97°
2026-05-04 15:21 29.72284 118.42308 18605 ft 364 kts 97°
2026-05-04 15:22 29.72016 118.45198 18285 ft 361 kts 97°
2026-05-04 15:22 29.71754 118.48060 17972 ft 358 kts 96°
2026-05-04 15:22 29.71240 118.53693 17396 ft 350 kts 96°
2026-05-04 15:23 29.70988 118.56460 17048 ft 347 kts 96°
2026-05-04 15:23 29.70736 118.59213 16703 ft 345 kts 96°
2026-05-04 15:23 29.70487 118.61935 16417 ft 341 kts 96°
2026-05-04 15:23 29.70240 118.64636 16119 ft 337 kts 96°
2026-05-04 15:24 29.69752 118.69968 15822 ft 337 kts 95°
2026-05-04 15:24 29.70664 118.75176 15813 ft 334 kts 68°
2026-05-04 15:25 29.71498 118.77665 15807 ft 334 kts 68°
2026-05-04 15:25 29.72346 118.80157 15809 ft 334 kts 68°
2026-05-04 15:25 29.73186 118.82643 15806 ft 334 kts 68°
2026-05-04 15:26 29.74844 118.87635 15807 ft 334 kts 68°
2026-05-04 15:26 29.75664 118.90137 15804 ft 334 kts 68°
2026-05-04 15:26 29.77273 118.95087 15473 ft 327 kts 69°
2026-05-04 15:27 29.78063 118.97529 15127 ft 326 kts 69°
2026-05-04 15:27 29.79644 119.02422 14517 ft 321 kts 69°
2026-05-04 15:28 29.81171 119.07164 13967 ft 315 kts 69°
2026-05-04 15:28 29.81927 119.09513 13660 ft 312 kts 69°
2026-05-04 15:28 29.83436 119.14206 12982 ft 308 kts 69°
2026-05-04 15:29 29.84176 119.16513 12656 ft 306 kts 69°
2026-05-04 15:30 29.87091 119.25607 11916 ft 302 kts 69°
2026-05-04 15:30 29.89259 119.32385 11911 ft 300 kts 69°
2026-05-04 15:31 29.90701 119.36901 11910 ft 300 kts 69°
2026-05-04 15:31 29.91419 119.39155 11912 ft 300 kts 69°
2026-05-04 15:32 29.93577 119.45930 11910 ft 300 kts 69°
2026-05-04 15:32 29.95018 119.50463 11907 ft 301 kts 69°
2026-05-04 15:33 29.96461 119.55006 11908 ft 302 kts 69°
2026-05-04 15:34 29.98627 119.61842 11891 ft 301 kts 69°
2026-05-04 15:34 29.99341 119.64100 11734 ft 298 kts 69°
2026-05-04 15:34 30.00756 119.68573 11063 ft 296 kts 69°
2026-05-04 15:35 30.02155 119.73005 10542 ft 289 kts 69°
2026-05-04 15:35 30.02832 119.75149 10436 ft 280 kts 69°
2026-05-04 15:35 30.03497 119.77252 10191 ft 278 kts 69°
2026-05-04 15:36 30.05175 119.81239 9572 ft 275 kts 61°
2026-05-04 15:36 30.06080 119.83183 9275 ft 274 kts 61°
2026-05-04 15:36 30.06980 119.85124 8976 ft 273 kts 61°
2026-05-04 15:37 30.07868 119.87056 8664 ft 272 kts 62°
2026-05-04 15:37 30.08464 119.88360 8465 ft 272 kts 62°
2026-05-04 15:37 30.09341 119.90287 8170 ft 271 kts 62°
2026-05-04 15:37 30.10201 119.92188 7944 ft 270 kts 62°
2026-05-04 15:38 30.11083 119.94141 7911 ft 273 kts 62°
2026-05-04 15:38 30.11960 119.96087 7904 ft 272 kts 62°
2026-05-04 15:38 30.12827 119.98015 7878 ft 269 kts 62°
2026-05-04 15:38 30.13687 119.99931 7880 ft 269 kts 62°
2026-05-04 15:39 30.14549 120.01851 7890 ft 270 kts 62°
2026-05-04 15:39 30.15414 120.03781 7879 ft 271 kts 62°
2026-05-04 15:39 30.17146 120.07645 7896 ft 271 kts 62°
2026-05-04 15:40 30.18014 120.09582 7883 ft 271 kts 62°
2026-05-04 15:40 30.18880 120.11517 7888 ft 271 kts 62°
2026-05-04 15:40 30.19756 120.13476 7881 ft 271 kts 62°
2026-05-04 15:40 30.20620 120.15409 7884 ft 270 kts 62°
2026-05-04 15:41 30.21481 120.17342 7884 ft 270 kts 62°
2026-05-04 15:41 30.22333 120.19257 7807 ft 267 kts 62°
2026-05-04 15:41 30.23179 120.21158 7537 ft 266 kts 62°
2026-05-04 15:41 30.24028 120.23066 7199 ft 267 kts 62°
2026-05-04 15:42 30.24867 120.24952 6961 ft 266 kts 62°
2026-05-04 15:42 30.25725 120.26883 6921 ft 268 kts 62°
2026-05-04 15:42 30.26576 120.28798 6898 ft 267 kts 62°
2026-05-04 15:42 30.27421 120.30700 6775 ft 263 kts 62°
2026-05-04 15:43 30.28257 120.32582 6466 ft 264 kts 62°
2026-05-04 15:43 30.29096 120.34474 6135 ft 265 kts 62°
2026-05-04 15:43 30.29933 120.36362 5943 ft 262 kts 62°
2026-05-04 15:43 30.30749 120.38203 5893 ft 251 kts 62°
2026-05-04 15:44 30.31531 120.39967 5884 ft 244 kts 62°
2026-05-04 15:44 30.32302 120.41706 5889 ft 242 kts 62°
2026-05-04 15:44 30.33067 120.43435 5889 ft 241 kts 62°
2026-05-04 15:44 30.33832 120.45164 5793 ft 240 kts 62°
2026-05-04 15:45 30.34593 120.46882 5514 ft 240 kts 62°
2026-05-04 15:45 30.35330 120.48551 5417 ft 232 kts 62°
2026-05-04 15:45 30.36072 120.50230 5197 ft 231 kts 63°
2026-05-04 15:45 30.36804 120.51887 4975 ft 231 kts 63°
2026-05-04 15:46 30.37530 120.53531 4901 ft 232 kts 63°
2026-05-04 15:46 30.38277 120.55225 4886 ft 234 kts 63°
2026-05-04 15:46 30.39007 120.56881 4870 ft 233 kts 63°
2026-05-04 15:46 30.39750 120.58566 4864 ft 231 kts 63°
2026-05-04 15:47 30.40481 120.60224 4876 ft 230 kts 63°
2026-05-04 15:47 30.41198 120.61850 4876 ft 229 kts 63°
2026-05-04 15:47 30.41716 120.63577 4863 ft 228 kts 88°
2026-05-04 15:47 30.41372 120.65354 4773 ft 224 kts 122°
2026-05-04 15:48 30.40289 120.66609 4492 ft 222 kts 149°
2026-05-04 15:48 30.38938 120.67475 4206 ft 223 kts 154°
2026-05-04 15:48 30.36100 120.67308 3677 ft 218 kts 225°
2026-05-04 15:49 30.35188 120.65923 3499 ft 214 kts 234°
2026-05-04 15:49 30.34370 120.64535 3370 ft 205 kts 236°
2026-05-04 15:49 30.33657 120.63113 3069 ft 204 kts 240°
2026-05-04 15:49 30.33010 120.61672 3008 ft 206 kts 241°
2026-05-04 15:50 30.32348 120.60172 2964 ft 205 kts 241°
2026-05-04 15:50 30.31707 120.58717 2787 ft 201 kts 241°
2026-05-04 15:50 30.31087 120.57312 2542 ft 194 kts 241°
2026-05-04 15:50 30.30483 120.55943 2291 ft 183 kts 240°
2026-05-04 15:51 30.29929 120.54688 2052 ft 172 kts 240°
2026-05-04 15:51 30.29396 120.53480 1842 ft 162 kts 240°
2026-05-04 15:51 30.28901 120.52358 1618 ft 154 kts 239°
2026-05-04 15:51 30.28436 120.51305 1437 ft 146 kts 240°
2026-05-04 15:52 30.27974 120.50258 1238 ft 143 kts 239°
2026-05-04 15:52 30.27527 120.49246 1058 ft 144 kts 239°
2026-05-04 15:52 30.27066 120.48201 867 ft 145 kts 240°
2026-05-04 15:52 30.26613 120.47173 677 ft 146 kts 240°
2026-05-04 15:53 30.26151 120.46121 507 ft 146 kts 241°
2026-05-04 15:53 30.25689 120.45080 329 ft 145 kts 242°
2026-05-04 15:53 30.25237 120.44037 132 ft 147 kts 243°
2026-05-04 15:53 30.24781 120.43000 31 ft 132 kts 243°
2026-05-04 15:54 30.24463 120.42282 31 ft 68 kts 243°
2026-05-04 15:54 30.24317 120.41979 32 ft 29 kts 230°
2026-05-04 15:54 30.24217 120.41864 31 ft 4 kts 218°
2026-05-04 15:54 30.24195 120.41844 30 ft 4 kts 217°
2026-05-04 15:55 30.24171 120.41823 31 ft 4 kts 217°
2026-05-04 15:55 30.24148 120.41803 30 ft 4 kts 216°
2026-05-04 15:55 30.24118 120.41792 31 ft 6 kts 182°
2026-05-04 15:55 30.24081 120.41833 29 ft 10 kts 98°
2026-05-04 15:56 30.24109 120.41918 31 ft 12 kts 63°
2026-05-04 15:56 30.24147 120.42003 31 ft 12 kts 63°
2026-05-04 15:56 30.24175 120.42073 31 ft 9 kts 78°
2026-05-04 15:56 30.24143 120.42131 30 ft 8 kts 153°
2026-05-04 15:57 30.24105 120.42152 31 ft 6 kts 155°
2026-05-04 15:57 30.24069 120.42173 31 ft 6 kts 144°
2026-05-04 15:57 30.24046 120.42211 31 ft 6 kts 118°
2026-05-04 15:57 30.24022 120.42248 30 ft 6 kts 132°
2026-05-04 15:58 30.23994 120.42279 29 ft 6 kts 138°
2026-05-04 15:58 30.23966 120.42308 29 ft 2 kts 137°
2026-05-04 15:58 30.23964 120.42311 30 ft 0 kts 137°